[[{"header":{"parameterUnit":"m.s-1","parameterCategory":1,"la1":30.2991,"la2":30.254,"lo1":-89.0895,"lo2":-89.0444,"dy":0.0017,"dx":0.0017,"nx":28,"ny":28,"refTime":"2024-07-11T03:00:00:Z","depth":0,"parameterNumber":2,"parameterNumberName":"U-component_of_WINDS"},"data":[0,0,0,0,0,0,0,0,0,0,0,0,0,0,0,0,0,0,0,0,0,0,0,0,0,0,0,0,0,0,0,0,0,0,0,0,0,0,0,0,0,0,0,0,0,0,0,0,0,0,0,0,0,0,0,0,0,0,0.8689,0.8689,0,0.871,0.871,0.871,0.8691,0.869,0.8689,0.8688,0.871,0.8712,0.8713,0,0,0,0,0,0,0,0,0,0,0,0,0,0.8631,0.8633,0.8689,0.8689,0.8689,0.871,0.871,0.871,0.8691,0.869,0.8689,0.8688,0.871,0.8711,0.8713,0,0,0,0,0,0,0,0,0,0,0,0,0,0.8655,0.8633,0.8689,0.8682,0.8682,0.871,0.871,0.8711,0.8691,0.869,0.8689,0.8688,0.8709,0.8711,0.8713,0.8749,0,0,0.8719,0.872,0,0,0,0,0,0,0,0,0.8654,0.8657,0.8683,0.8683,0.8682,0.8697,0.8698,0.8724,0.8691,0.8688,0.8688,0.8687,0.8707,0.8709,0.8715,0.875,0.8751,0.872,0.8721,0.8722,0.8722,0,0,0,0,0,0,0,0.8652,0.8656,0.8697,0.8683,0.8683,0.8678,0.868,0.8703,0.8704,0.8688,0.8686,0.8689,0.8706,0.8714,0.8716,0.8752,0.8719,0.8721,0.8722,0.8723,0.8816,0.8818,0,0,0,0,0,0,0.8651,0.8655,0.8696,0.8698,0.8665,0.868,0.8682,0.8693,0.8703,0.8704,0.869,0.8688,0.8711,0.8714,0.8717,0.8759,0.8722,0.8723,0.8725,0.8815,0.8817,0.8818,0,0,0,0,0,0,0.865,0.8655,0.8696,0.8676,0.8681,0.8682,0.8695,0.8694,0.8701,0.8705,0.8705,0.8697,0.871,0.8714,0.8741,0.8759,0.8724,0.8726,0.8814,0.8816,0.8817,0.8844,0,0,0,0,0,0,0.8648,0.8655,0.8668,0.8676,0.8682,0.872,0.8696,0.8695,0.8705,0.8702,0.8712,0.8712,0.8709,0.8738,0.8743,0.8762,0.8728,0.8812,0.8815,0.8817,0.8842,0.8847,0.8851,0,0,0,0,0,0.8646,0.8675,0.8669,0.8674,0.8699,0.8721,0.8724,0.872,0.8706,0.872,0.8722,0.8712,0.8757,0.8741,0.8747,0.8766,0.8811,0.8814,0.8817,0.884,0.8846,0.8851,0,0,0,0,0,0,0.867,0.8676,0.867,0.8702,0.8711,0.8718,0.8735,0.8727,0.874,0.8738,0.8732,0.8734,0.8763,0.8767,0.875,0.8801,0.8781,0.8786,0.8797,0.8803,0.8808,0.8806,0.8729,0,0,0,0,0,0.8679,0.8696,0.8701,0.8729,0.8734,0.8734,0.8743,0.8739,0.8748,0.8752,0.8757,0.8766,0.8782,0.8793,0.8808,0.8842,0.8844,0.8858,0.8863,0.8867,0.887,0.8889,0.8895,0.8828,0.8828,0.8828,0,0,0.8697,0.8703,0.8714,0.8734,0.874,0.8758,0.8737,0.8757,0.877,0.8755,0.8781,0.8785,0.8795,0.8826,0.884,0.883,0.8889,0.8871,0.8874,0.8875,0.8892,0.8899,0.8904,0.883,0.8829,0.8829,0,0,0.874,0.8746,0.877,0.8777,0.8787,0.8787,0.8793,0.8801,0.8802,0.8828,0.8817,0.8833,0.8861,0.8869,0.8876,0.8922,0.8912,0.8927,0.8952,0.8969,0.8975,0.8979,0.8995,0.9001,0.893,0.893,0.893,0,0.8762,0.8789,0.8784,0.8804,0.8813,0.88,0.8824,0.8831,0.8846,0.8852,0.8841,0.8876,0.8882,0.8914,0.8925,0.8932,0.8938,0.8926,0.8974,0.8979,0.8983,0.8998,0.9005,0.8932,0.8932,0.8932,0.8932,0,0.8815,0.8834,0.8852,0.8866,0.8877,0.8899,0.8897,0.8909,0.8904,0.8905,0.8931,0.8938,0.8954,0.8961,0.8957,0.8993,0.8987,0.8975,0.8955,0.8991,0.9006,0.9011,0.8934,0.8934,0.8933,0.8933,0,0,0.8874,0.8884,0.8891,0.8897,0.8907,0.8922,0.8943,0.8959,0.8969,0.8979,0.8997,0.9021,0.901,0.9019,0.9015,0.903,0.9066,0.9017,0.9017,0.9026,0.9106,0.9114,0.9121,0.906,0.9061,0.9062,0.9105,0,0.8917,0.8955,0.895,0.8986,0.9003,0.8991,0.9009,0.9017,0.9019,0.9033,0.9035,0.9052,0.9036,0.9041,0.9056,0.9058,0.9082,0.9055,0.9076,0.9077,0.9074,0.9129,0.9138,0.9178,0.911,0.9111,0.9112,0,0.8973,0.8985,0.9022,0.9029,0.9036,0.9053,0.9067,0.9081,0.909,0.9089,0.9099,0.9092,0.9114,0.9094,0.9123,0.9105,0.9114,0.9116,0.9117,0.9119,0.9097,0.9132,0.9191,0.9197,0.9121,0.912,0.912,0,0.9012,0.9037,0.9063,0.9068,0.9077,0.9089,0.9094,0.9101,0.9111,0.9123,0.9129,0.9143,0.9151,0.9162,0.916,0.9145,0.919,0.917,0.919,0.919,0.92,0.92,0.9262,0.9206,0.9206,0.9206,0.9205,0,0.906,0.9084,0.908,0.9096,0.9122,0.9116,0.9142,0.9145,0.9152,0.9167,0.9158,0.9173,0.9168,0.9183,0.9182,0.9206,0.921,0.921,0.921,0.9211,0.9211,0.9217,0.9214,0.9207,0.9207,0.9207,0.9206,0,0.9108,0.9107,0.9134,0.914,0.9142,0.9161,0.9166,0.918,0.9181,0.9201,0.9205,0.9206,0.9223,0.9221,0.9241,0.9239,0.927,0.9266,0.9267,0.9266,0.9287,0.9285,0.9355,0.9363,0.9302,0.9302,0.9303,0,0.914,0.9157,0.9165,0.9175,0.918,0.9196,0.9205,0.9201,0.9211,0.9222,0.9235,0.9251,0.9264,0.9292,0.9294,0.9309,0.9305,0.9329,0.9307,0.9308,0.9305,0.9304,0.9306,0.9333,0.9333,0.9334,0.9334,0,0.9195,0.9194,0.9207,0.9221,0.9232,0.9243,0.9252,0.9261,0.9257,0.9269,0.9287,0.9296,0.9316,0.9332,0.9346,0.935,0.9342,0.9341,0.9347,0.9349,0.9348,0.9349,0.9278,0.934,0.9339,0.9339,0.9338,0.9338,0.9236,0.9251,0.9258,0.9274,0.928,0.9289,0.9303,0.9305,0.9319,0.9335,0.9331,0.935,0.9358,0.9376,0.9382,0.9397,0.9389,0.9397,0.9399,0.9401,0.9403,0.9346,0.94,0.9399,0.9399,0.9399,0.9399,0,0.9291,0.9295,0.9309,0.9323,0.9335,0.9326,0.9335,0.9346,0.9363,0.9372,0.9384,0.9404,0.9419,0.9422,0.9437,0.9449,0.9445,0.9453,0.9452,0.9453,0.941,0.9404,0.9455,0.9455,0.9455,0.9455,0.9455,0.9455,0.9321,0.9346,0.9345,0.9372,0.9376,0.9395,0.9401,0.9409,0.9416,0.9438,0.9451,0.9452,0.9459,0.9474,0.9487,0.9488,0.9494,0.9503,0.9502,0.9462,0.9456,0.9451,0.9445,0.9504,0.9504,0.9544,0.9544,0.9544]},{"header":{"parameterUnit":"m.s-1","parameterCategory":1,"la1":30.2991,"la2":30.254,"lo1":-89.0895,"lo2":-89.0444,"dy":0.0017,"dx":0.0017,"nx":28,"ny":28,"refTime":"2024-07-11T03:00:00:Z","depth":0,"parameterNumber":3,"parameterNumberName":"V-component_of_WINDS"},"data":[0,0,0,0,0,0,0,0,0,0,0,0,0,0,0,0,0,0,0,0,0,0,0,0,0,0,0,0,0,0,0,0,0,0,0,0,0,0,0,0,0,0,0,0,0,0,0,0,0,0,0,0,0,0,0,0,0,0,-0.9395,-0.9395,0,-0.9409,-0.941,-0.941,-0.9433,-0.9433,-0.9434,-0.9434,-0.9448,-0.9448,-0.9448,0,0,0,0,0,0,0,0,0,0,0,0,0,-0.9387,-0.9387,-0.9395,-0.9395,-0.9395,-0.9409,-0.941,-0.941,-0.9433,-0.9433,-0.9434,-0.9434,-0.9448,-0.9448,-0.9448,0,0,0,0,0,0,0,0,0,0,0,0,0,-0.9395,-0.9387,-0.9395,-0.9409,-0.941,-0.9409,-0.941,-0.941,-0.9433,-0.9433,-0.9434,-0.9435,-0.9448,-0.9448,-0.9448,-0.9435,0,0,-0.9448,-0.9448,0,0,0,0,0,0,0,0,-0.9394,-0.9395,-0.9406,-0.9408,-0.9409,-0.942,-0.9412,-0.9418,-0.9432,-0.9424,-0.9434,-0.9435,-0.9438,-0.9439,-0.944,-0.9436,-0.9437,-0.9448,-0.9448,-0.9448,-0.9448,0,0,0,0,0,0,0,-0.9394,-0.9395,-0.9401,-0.9407,-0.9408,-0.9414,-0.9416,-0.9413,-0.9427,-0.9425,-0.9427,-0.9428,-0.9439,-0.944,-0.9441,-0.9437,-0.9448,-0.9448,-0.9448,-0.9448,-0.9422,-0.9422,0,0,0,0,0,0,-0.9391,-0.9394,-0.94,-0.9401,-0.9403,-0.9413,-0.9415,-0.9416,-0.9427,-0.943,-0.9427,-0.9429,-0.944,-0.9441,-0.9441,-0.9427,-0.9448,-0.9448,-0.9448,-0.9423,-0.9422,-0.9422,0,0,0,0,0,0,-0.9391,-0.9392,-0.94,-0.9398,-0.94,-0.9413,-0.9413,-0.9416,-0.9417,-0.9429,-0.9432,-0.9426,-0.9441,-0.9441,-0.9437,-0.9428,-0.9448,-0.9448,-0.9424,-0.9423,-0.9422,-0.9398,0,0,0,0,0,0,-0.9391,-0.9392,-0.9387,-0.9398,-0.94,-0.9395,-0.9413,-0.9416,-0.9417,-0.9419,-0.9429,-0.9431,-0.9441,-0.9437,-0.9437,-0.9428,-0.9448,-0.9425,-0.9423,-0.9422,-0.9399,-0.9396,-0.9393,0,0,0,0,0,-0.9391,-0.9379,-0.9387,-0.9387,-0.9394,-0.9394,-0.9395,-0.9407,-0.9416,-0.9411,-0.942,-0.9431,-0.9429,-0.9436,-0.9436,-0.9427,-0.9425,-0.9424,-0.9422,-0.9401,-0.9397,-0.9393,0,0,0,0,0,0,-0.9367,-0.9381,-0.9389,-0.9381,-0.9386,-0.9398,-0.9392,-0.9402,-0.9405,-0.9407,-0.9422,-0.9424,-0.9417,-0.9422,-0.9429,-0.9415,-0.9429,-0.9427,-0.9412,-0.9408,-0.9405,-0.9404,-0.9448,0,0,0,0,0,-0.9361,-0.936,-0.9372,-0.9364,-0.9366,-0.9379,-0.9379,-0.9388,-0.9394,-0.9396,-0.9404,-0.9409,-0.9409,-0.9409,-0.9411,-0.94,-0.9403,-0.9395,-0.9391,-0.9389,-0.9387,-0.9382,-0.9378,-0.9417,-0.9417,-0.9417,0,0,-0.9348,-0.9356,-0.9354,-0.936,-0.9364,-0.9363,-0.938,-0.9378,-0.9377,-0.9396,-0.9392,-0.9397,-0.9404,-0.9396,-0.9393,-0.94,-0.9377,-0.9387,-0.9385,-0.9384,-0.938,-0.9376,-0.9373,-0.9416,-0.9416,-0.9416,0,0,-0.9324,-0.933,-0.9323,-0.9328,-0.9335,-0.9344,-0.9342,-0.9353,-0.9357,-0.9353,-0.9367,-0.9366,-0.9367,-0.9371,-0.9373,-0.9351,-0.9361,-0.9351,-0.9334,-0.9329,-0.9326,-0.9323,-0.9314,-0.9311,-0.9349,-0.9349,-0.9349,0,-0.9307,-0.9305,-0.9319,-0.9315,-0.9317,-0.9335,-0.9328,-0.9332,-0.9339,-0.934,-0.9348,-0.9349,-0.9355,-0.9348,-0.9343,-0.9344,-0.9342,-0.9349,-0.9325,-0.9323,-0.932,-0.9312,-0.9309,-0.9348,-0.9348,-0.9348,-0.9348,0,-0.9284,-0.9282,-0.9276,-0.9283,-0.9284,-0.9279,-0.9292,-0.9292,-0.9301,-0.9308,-0.9304,-0.9312,-0.9315,-0.9314,-0.9322,-0.9308,-0.9312,-0.9322,-0.9336,-0.9315,-0.9308,-0.9305,-0.9346,-0.9346,-0.9347,-0.9347,0,0,-0.9244,-0.9259,-0.9256,-0.9259,-0.9269,-0.9268,-0.9264,-0.9267,-0.9266,-0.9271,-0.9267,-0.9268,-0.9277,-0.928,-0.9289,-0.9284,-0.9265,-0.9295,-0.9295,-0.9289,-0.925,-0.9241,-0.9238,-0.9273,-0.9272,-0.9272,-0.9249,0,-0.9221,-0.9215,-0.9227,-0.9218,-0.9217,-0.9233,-0.923,-0.9235,-0.9242,-0.9242,-0.925,-0.925,-0.9263,-0.9264,-0.9261,-0.9268,-0.9258,-0.9271,-0.9269,-0.9269,-0.9266,-0.9234,-0.9225,-0.9203,-0.9246,-0.9246,-0.9245,0,-0.9193,-0.9197,-0.9187,-0.9197,-0.9197,-0.9194,-0.9198,-0.9197,-0.9204,-0.9209,-0.9212,-0.9223,-0.922,-0.9234,-0.9229,-0.9237,-0.9238,-0.9241,-0.9241,-0.924,-0.9255,-0.9232,-0.9196,-0.9193,-0.9241,-0.9241,-0.9242,0,-0.9165,-0.9167,-0.9161,-0.9164,-0.9176,-0.9173,-0.9177,-0.9185,-0.9186,-0.9189,-0.919,-0.9192,-0.9194,-0.9196,-0.9207,-0.9216,-0.9201,-0.9215,-0.9205,-0.9204,-0.92,-0.92,-0.9163,-0.9201,-0.9202,-0.9202,-0.9202,0,-0.9137,-0.9131,-0.9149,-0.9145,-0.9138,-0.9153,-0.9145,-0.9152,-0.9158,-0.9156,-0.9171,-0.9169,-0.9184,-0.9184,-0.9193,-0.9187,-0.9188,-0.9192,-0.9194,-0.919,-0.9189,-0.919,-0.9191,-0.9201,-0.9201,-0.9201,-0.9201,0,-0.9104,-0.9115,-0.911,-0.9122,-0.9125,-0.9119,-0.9129,-0.9126,-0.9135,-0.9132,-0.9132,-0.9145,-0.9145,-0.9157,-0.916,-0.9166,-0.9156,-0.9162,-0.9154,-0.9155,-0.9143,-0.9144,-0.9105,-0.91,-0.9142,-0.9142,-0.9141,0,-0.9085,-0.908,-0.9092,-0.9091,-0.9095,-0.9095,-0.9096,-0.911,-0.9111,-0.9118,-0.9114,-0.9115,-0.9117,-0.9116,-0.9126,-0.9128,-0.9133,-0.9119,-0.9133,-0.9129,-0.9132,-0.9132,-0.9131,-0.9116,-0.9115,-0.9115,-0.9115,0,-0.905,-0.9057,-0.9058,-0.9061,-0.9062,-0.9065,-0.9069,-0.9068,-0.9083,-0.9083,-0.9083,-0.9085,-0.9087,-0.9088,-0.9092,-0.9097,-0.9108,-0.911,-0.9108,-0.9103,-0.9098,-0.91,-0.9145,-0.9111,-0.9111,-0.9112,-0.9112,-0.9112,-0.9023,-0.902,-0.9027,-0.9028,-0.9032,-0.9036,-0.9034,-0.9042,-0.9042,-0.9046,-0.9054,-0.9053,-0.9059,-0.9066,-0.907,-0.9069,-0.9076,-0.9072,-0.9071,-0.907,-0.9067,-0.9099,-0.907,-0.907,-0.907,-0.907,-0.907,0,-0.8989,-0.8994,-0.8995,-0.9,-0.9001,-0.9012,-0.9017,-0.9016,-0.9015,-0.902,-0.9022,-0.9022,-0.9023,-0.9033,-0.9035,-0.9033,-0.9038,-0.9033,-0.9032,-0.9033,-0.9061,-0.9063,-0.9028,-0.9028,-0.9028,-0.9028,-0.9028,-0.9028,-0.8971,-0.8965,-0.8972,-0.8969,-0.8975,-0.8974,-0.8976,-0.8979,-0.8983,-0.8983,-0.8984,-0.899,-0.8997,-0.9,-0.9002,-0.9005,-0.9004,-0.8997,-0.9002,-0.9027,-0.9031,-0.9035,-0.9037,-0.8997,-0.8997,-0.8974,-0.8973,-0.8973]}]]